Address 0x88888846b627c2405c4b8963e45d731b7cdda406 9

Txn Hash Method
Block
From
To
Value [Txn Fee]
0xc6def1ae8607fb2a42a22614fcb65e162a5d314276480924fc64c96aed30d928Transfer187099812022-08-16 7:52:112 mins ago0x88888846b627c2405c4b8963e45d731b7cdda406SELF0x88888846b627c2405c4b8963e45d731b7cdda4060 AVAX0.‍0006121529.‍150000002
0xe9fb21e5d9e91cdd976b701b4738a86b33c2e776838434de1f3e281f897479670xc23325c3187092742022-08-16 7:28:2626 mins ago0x88888846b627c2405c4b8963e45d731b7cdda406OUT 0xbb90f0b52ff68c804b635fd25186b042a7d945e20 AVAX0.‍011159397972130.‍984998971
0xa13f5a442cd05fd8ca66fa72f6999070241f4732c988e89de3e2ae9d65075da0Transfer187090102022-08-16 7:19:2635 mins ago0x88888846b627c2405c4b8963e45d731b7cdda406SELF0x88888846b627c2405c4b8963e45d731b7cdda4060 AVAX0.‍000600628.‍600000002
0xa48f471bac8e0e14871fec563164eb3c966394510f89b21720227a5dd16ba11d0xc23325c3187086092022-08-16 7:06:0149 mins ago0x88888846b627c2405c4b8963e45d731b7cdda406OUT 0xbb90f0b52ff68c804b635fd25186b042a7d945e20 AVAX0.‍03464178147987.‍836804059
0x506021e51095c991afa4b4e2b77092b403e70280fe8774430e6f959a893bf6bf0xc23325c3187082162022-08-16 6:52:461 hr 2 mins ago0x88888846b627c2405c4b8963e45d731b7cdda406OUT 0xbb90f0b52ff68c804b635fd25186b042a7d945e20 AVAX0.‍00122721529.‍150000002
0x0cb8831973f3c9dfc13091f5cd9203060a5694a935b6ce477f52b7686a73aa08Transfer187081762022-08-16 6:51:271 hr 3 mins ago0x88888846b627c2405c4b8963e45d731b7cdda406SELF0x88888846b627c2405c4b8963e45d731b7cdda4060 AVAX0.‍00115555.‍000000002
0x44100d1567035d2aca0ea668dd3dd056a58fcbd222e2c73e6585ca1ded141683Transfer187078152022-08-16 6:39:171 hr 15 mins ago0x88888846b627c2405c4b8963e45d731b7cdda406SELF0x88888846b627c2405c4b8963e45d731b7cdda4060 AVAX0.‍0006121529.‍150000002
0xd12b2743b323e52f4fe4277f722a3f017e6993a72b12786a0bd07117d7c8b5ebTransfer187078032022-08-16 6:38:531 hr 16 mins ago0x88888846b627c2405c4b8963e45d731b7cdda406SELF0x88888846b627c2405c4b8963e45d731b7cdda4060 AVAX0.‍00067336532.‍065000003
0xc8d04bf9c8990e45a597edffbfee2576571b10f80947b2b8a3c5d79b7a3e39fb0xc23325c3187075832022-08-16 6:31:311 hr 23 mins ago0x88888846b627c2405c4b8963e45d731b7cdda406OUT 0xbb90f0b52ff68c804b635fd25186b042a7d945e20 AVAX0.‍00403444437366.‍406234549
0x8ceee196615807cd4a57851bdf78967dc0c645e716fc2e5a9c4bd8c243e154890xc23325c3187072412022-08-16 6:19:561 hr 35 mins ago0x88888846b627c2405c4b8963e45d731b7cdda406OUT 0xbb90f0b52ff68c804b635fd25186b042a7d945e20 AVAX0.‍0080927291727.‍281682501
0xe6d61db05e18dd5afc7c9bc0beda99e4232ff3af482990304517f1e2808ad71c0xc23325c3187069842022-08-16 6:11:221 hr 43 mins ago0x88888846b627c2405c4b8963e45d731b7cdda406OUT 0xbb90f0b52ff68c804b635fd25186b042a7d945e20 AVAX0.‍001351897526.‍500000001
0x48997179c7f92ea82371212761c6485bdd98447ba7ca32d713603143c7eb32ec0xc23325c3187067942022-08-16 6:04:581 hr 50 mins ago0x88888846b627c2405c4b8963e45d731b7cdda406OUT 0xbb90f0b52ff68c804b635fd25186b042a7d945e20 AVAX0.‍00478840280544.‍390084507
0xa58ebaea406b76dbf1234004b874e74528f87091e9aceeae39e77da79a1286cbTransfer187063002022-08-16 5:48:252 hrs 6 mins ago0x88888846b627c2405c4b8963e45d731b7cdda406SELF0x88888846b627c2405c4b8963e45d731b7cdda4060 AVAX0.‍0006121529.‍150000002
0x3e0bc6ec541df5e3f2000a6b5cf70260bd0957cf33886b476f36afb6e38c89d0Transfer187061872022-08-16 5:44:362 hrs 10 mins ago0x88888846b627c2405c4b8963e45d731b7cdda406SELF0x88888846b627c2405c4b8963e45d731b7cdda4060 AVAX0.‍002409457846114.‍736087923
0x64273c42240324ceff6873aa26816452af0281f3aac8c856b4712577f89142aa0xc23325c3187061262022-08-16 5:42:372 hrs 12 mins ago0x88888846b627c2405c4b8963e45d731b7cdda406OUT 0xbb90f0b52ff68c804b635fd25186b042a7d945e20 AVAX0.‍00262783951.‍500000003
0x5b3b7471a585b6f31632f3a98e7da2323313040dda9b725940e734cb1d30ad950xc23325c3187061032022-08-16 5:41:512 hrs 13 mins ago0x88888846b627c2405c4b8963e45d731b7cdda406OUT 0xbb90f0b52ff68c804b635fd25186b042a7d945e20 AVAX0.‍009076329526.‍500000001
0xf99b838832eb5a5718a744971ffd99f4589bf21ba848989c332404a49b9023cd0xc23325c3187059692022-08-16 5:37:222 hrs 17 mins ago0x88888846b627c2405c4b8963e45d731b7cdda406OUT 0xbb90f0b52ff68c804b635fd25186b042a7d945e20 AVAX0.‍00133745573931.‍759492292
0x388ede0ec82db2e21ffb65f0cb72fef2eafe6724683594f51c9b0a53b3ceffa5Transfer187059602022-08-16 5:37:052 hrs 18 mins ago0x88888846b627c2405c4b8963e45d731b7cdda406SELF0x88888846b627c2405c4b8963e45d731b7cdda4060 AVAX0.‍00067336532.‍065000003
0x33a6ece647896bcaf1d44b22e3b70b1bd0e290a2a5fcfb1d38284f14eecabaa30xc23325c3187055972022-08-16 5:24:502 hrs 30 mins ago0x88888846b627c2405c4b8963e45d731b7cdda406OUT 0xbb90f0b52ff68c804b635fd25186b042a7d945e20 AVAX0.‍0011982137528.‍750000001
0xfb58b802297fd25be492238f68619c4d909787d97899a3904028241dd7ded13c0xc23325c3187054092022-08-16 5:18:292 hrs 36 mins ago0x88888846b627c2405c4b8963e45d731b7cdda406OUT 0xbb90f0b52ff68c804b635fd25186b042a7d945e20 AVAX0.‍00147119435.‍250000001
0xba040ec2d02963d56a2d601614ebacb1fd68ceab5d2c8ad903bc45a0247c09cdTransfer187040482022-08-16 4:32:533 hrs 22 mins ago0x88888846b627c2405c4b8963e45d731b7cdda406SELF0x88888846b627c2405c4b8963e45d731b7cdda4060 AVAX0.‍00136462046464.‍981926893
0x99d57a65ec0d68246b68be7da079f9830e66f96052a9c733d9540fb6120961e20xc23325c3187038392022-08-16 4:25:503 hrs 29 mins ago0x88888846b627c2405c4b8963e45d731b7cdda406OUT 0xbb90f0b52ff68c804b635fd25186b042a7d945e20 AVAX0.‍00250456826.‍500000001
0xcc0daa52d4eeeec1f2fa9220e19ae557cdb76e5d062b946b3679ef0ffc470df10xc23325c3187037572022-08-16 4:23:093 hrs 31 mins ago0x88888846b627c2405c4b8963e45d731b7cdda406OUT 0xbb90f0b52ff68c804b635fd25186b042a7d945e20 AVAX0.‍00339318706466.‍542212942
0xe5c7b77dd26f8f21b0719a7c34bffa7ffea986a7dd11a51c70558c6837e7ce290xc23325c3187037262022-08-16 4:22:063 hrs 32 mins ago0x88888846b627c2405c4b8963e45d731b7cdda406OUT 0xbb90f0b52ff68c804b635fd25186b042a7d945e20 AVAX0.‍00183736358536.‍031682501
0x171a3e0f59c2e38c273c81e64d73258e52c64854ccd70c98a670bbd126684e720xc23325c3187037032022-08-16 4:21:193 hrs 33 mins ago0x88888846b627c2405c4b8963e45d731b7cdda406OUT 0xbb90f0b52ff68c804b635fd25186b042a7d945e20 AVAX0.‍001351314526.‍500000001
[ Download CSV Export 
Parent Txn Hash Block From To Value
Loading

Contract Name:
0

Compiler Version
0

Optimization Enabled:
0

Other Settings:
-NA-
Block Transaction Gas Used Reward
Age Block Fee Address BC Fee Address Voting Power Jailed Incoming
Block Uncle Number Difficulty Gas Used Reward
Loading
Make sure to use the "Vote Down" button for any spammy posts, and the "Vote Up" for interesting conversations.